AirNav   TITAN Aviation Fuels
 
 664 users online  

OR87 Blue Skies Farm Airport
Salem, Oregon, USA

GOING TO SALEM?


FAA INFORMATION EFFECTIVE 16 JUNE 2022

Location

FAA Identifier: OR87
Lat/Long: 44-57-58.0000N 122-55-21.0000W
44-57.966667N 122-55.350000W
44.9661111,-122.9225000
(estimated)
Elevation: 200 ft. / 61 m (estimated)
From city: 6 miles NE of SALEM, OR
Time zone: UTC -7 (UTC -8 during Standard Time)
Zip code: 97301

Airport Operations

Airport use: Private use. Permission required prior to landing
Activation date: 06/2009
Control tower: no
ARTCC: SEATTLE CENTER
FSS: MC MINNVILLE FLIGHT SERVICE STATION
Attendance: UNATNDD
Wind indicator: yes
Segmented circle: no

Airport Communications

WX ASOS at SLE (5 nm SW): 124.55 (503-371-1062)
WX ASOS at MMV (16 nm NW): 135.675 (503-434-9153)
WX ASOS at UAO (18 nm N): PHONE 503-678-3011

Airport Services

Runway Information

Runway 1/19

Dimensions: 1345 x 45 ft. / 410 x 14 m
Surface: turf, in good condition
RUNWAY 1  RUNWAY 19
Traffic pattern: leftright
Obstructions: 100 ft. tree, 3000 ft. from runway30 ft. pline

Airport Ownership and Management from official FAA records

Ownership: Privately-owned
Owner: BRIAN AND LINDA SCHAFFNER
6840 LARDON RD NE
SALEM, OR 97305
Phone 503-881-8840
Manager: BRIAN SCHAFFNER
6840 LARDON RD NE
SALEM, OR 97305
Phone 503-881-8840

Airport Operational Statistics

Aircraft based on the field: 1
Single engine airplanes: 1
    

Additional Remarks

FOR CD CTC SEATTLE ARTCC AT 253-351-3694.

Instrument Procedures

There are no published instrument procedures at OR87.

Some nearby airports with instrument procedures:

KSLE - McNary Field Airport (5 nm SW)
KMMV - Mc Minnville Municipal Airport (16 nm NW)
KUAO - Aurora State Airport (18 nm N)
S12 - Albany Municipal Airport (21 nm S)
KCVO - Corvallis Municipal Airport (32 nm SW)
 
Loc | Ops | Rwys | IFR | FBO | Links
Com | Nav | Svcs | Stats | Notes
Aerial photo
No photo
 
Sectional chart

 
Airport distance calculator
Flying to Blue Skies Farm Airport? Find the distance to fly.

From to OR87

Sunrise and sunset
Times for 27-Jun-2022
 Local
(UTC-7)
 Zulu
(UTC)
Morning civil twilight04:5111:51
Sunrise05:2812:28
Sunset21:0104:01
Evening civil twilight21:3904:39

Current date and time
Zulu (UTC)  27-Jun-2022 11:39:30
Local (UTC-7)  27-Jun-2022 04:39:30
 
METAR
KSLE 
5nm SW 
271056Z 00000KT 10SM CLR 19/13 A2995 RMK AO2 SLP141 T01940128
KMMV 
17nm NW 
271053Z AUTO 25007KT 10SM CLR 16/10 A2995 RMK AO2 SLP141 T01560100
KUAO 
18nm N 
271053Z AUTO 00000KT 10SM CLR 18/13 A2997 RMK AO2 SLP146 T01830128
TAF
KSLE 
5nm SW 
270520Z 2706/2806 27005KT P6SM SKC FM272100 23009KT P6SM SKC FM280000 24011G22KT P6SM SKC FM280300 22007KT P6SM SKC
KUAO 
18nm N 
270520Z 2706/2806 VRB03KT P6SM SKC FM272100 22008KT P6SM SKC
NOTAMs
Click for the latest NOTAMs
NOTAMs are issued by the DoD/FAA and will open in a separate window not controlled by AirNav.

 

 
 

Would you like to see your business listed on this page?

 If your business provides an interesting product or service to pilots, flight crews, aircraft, or users of the Blue Skies Farm Airport, you should consider listing it here.  To start the listing process, click on the button below
 
Add a business
 

Other Pages about Blue Skies Farm Airport

Update a link
 
Copyright © AirNav, LLC. All rights reserved. Privacy Policy  Contact